#timestamp,LO_Frequency,Hit,StdDev 
1656655215.6,286046996.9,N
1656655235.4,286046997.2,N
1656655255.2,286046996.7,N
1656655275.1,286046997.7,N
1656655276.0,286046997.7,N
1656655295.8,286046997.5,N
1656655315.7,286046996.7,N
1656655335.5,286046997.2,N
1656655355.3,286046997.5,N
1656655375.2,286046997.2,Y
1656655395.0,286047001.1,P
1656655395.9,286047001.1,N
1656655415.7,286046998.4,N
1656655435.6,286046998.6,N
1656655455.4,286047000.4,N
1656655475.3,286047000.5,N
1656655495.1,286047000.8,N
1656655496.0,286047000.8,N
1656655515.8,286046998.7,N
1656655535.7,286047001.2,N
1656655555.5,286047000.8,N
1656655575.4,286047000.3,N
1656655595.2,286046998.1,N
1656655615.0,286047000.9,N
1656655615.9,286047000.9,N
1656655635.8,286047000.7,N
1656655655.6,286047000.7,N
1656655675.4,286047001.1,N
1656655695.3,286047000.8,N
1656655715.1,286046998.6,N
1656655735.9,286046998.8,N
1656655755.7,286046998.3,N
1656655775.5,286047001.0,N
1656655795.4,286046998.2,N
1656655815.2,286046998.3,N
1656655835.0,286046998.2,N
1656655835.9,286046998.2,N
1656655855.8,286046999.4,N
1656655875.6,286046999.6,N
1656655895.5,286046996.8,N
1656655915.3,286046999.4,N
1656655935.1,286046999.2,N
1656655955.9,286046998.3,N
1656655975.7,286046999.0,N
1656655995.5,286046998.7,N
1656656015.4,286046999.5,N
1656656035.2,286046999.1,N
1656656055.1,286046996.7,N
1656656056.0,286046996.7,N
1656656075.8,286046996.6,N
1656656095.6,286046999.5,N
1656656115.5,286046996.7,N
1656656135.3,286046996.7,N
1656656155.1,286046997.0,N
1656656175.9,286046996.8,N
1656656195.7,286046998.9,N
1656656215.6,286046999.4,N
1656656235.4,286046999.0,N
1656656255.2,286046998.4,N
1656656275.1,286046998.6,N
1656656276.0,286046998.6,N
1656656295.8,286046998.8,N
1656656315.7,286046998.8,N
1656656335.5,286046999.0,N
1656656355.3,286046998.4,N
1656656375.2,286046998.9,N
1656656395.9,286046998.4,N
1656656415.7,286046998.7,N
1656656435.6,286046999.1,N
1656656455.4,286046999.0,N
1656656475.3,286046996.5,Y
1656656495.1,286046999.3,P
1656656515.8,286046998.1,P
1656656535.7,286046998.5,N
1656656555.5,286046998.9,N
1656656575.4,286046998.6,Y
1656656595.2,286047000.1,P
1656656615.0,286046999.7,N
1656656615.9,286046999.7,N
1656656635.8,286046999.9,N
1656656655.6,286047001.0,N
1656656675.5,286047000.5,N
1656656695.3,286046998.1,N
1656656715.1,286047001.0,N
1656656735.9,286047000.4,N
1656656755.7,286047000.4,N
1656656775.5,286046999.9,N
1656656795.4,286047000.4,N
1656656815.2,286047001.0,N
1656656835.1,286047001.1,N
1656656836.0,286047001.1,N
1656656855.8,286046998.2,N
1656656875.6,286047000.3,N
1656656895.5,286047002.7,N
1656656915.3,286047002.2,N
1656656935.1,286047002.0,N
1656656955.9,286047002.3,N
1656656975.7,286047002.5,N
1656656995.6,286047002.5,N
1656657015.4,286047002.8,N
1656657035.2,286047000.4,N
1656657055.1,286047000.5,N
1656657056.0,286047000.5,N
1656657075.8,286047000.4,N
1656657095.7,286047000.0,N
1656657115.5,286047000.6,N
1656657135.3,286047002.8,N
1656657155.2,286047002.8,N
1656657175.0,286046999.8,N
1656657175.9,286046999.8,N
1656657195.8,286047000.3,N
1656657215.6,286047001.0,N
1656657235.4,286047001.2,N
1656657255.3,286047001.0,N
1656657275.1,286047000.9,N
1656657295.8,286047000.1,N
1656657315.7,286047000.2,N
1656657335.5,286047002.8,N
1656657355.4,286047000.5,N
1656657375.2,286046998.4,N
1656657395.0,286047001.2,N
1656657395.9,286047001.2,N
1656657415.8,286046998.7,N
1656657435.6,286046998.7,N
1656657455.5,286046998.6,N
1656657475.3,286047000.5,N
1656657495.1,286047000.4,N
1656657515.9,286047000.1,N
1656657535.7,286047002.7,N
1656657555.5,286047002.5,N
1656657575.4,286047002.7,N
1656657595.2,286047002.6,N
1656657615.1,286047001.6,N
1656657616.0,286047001.6,N
1656657635.8,286047002.2,N
1656657655.6,286047002.5,N
1656657675.5,286047002.2,N
1656657695.3,286047002.2,N
1656657715.1,286047002.2,N
1656657735.9,286047002.6,N
1656657755.7,286047002.6,N
1656657775.6,286047001.3,N
1656657795.4,286047001.9,N
1656657815.2,286047001.8,N
1656657835.1,286047001.5,N
1656657836.0,286047001.5,N
1656657855.8,286047001.3,N
1656657875.7,286047004.1,Y
1656657895.5,286047000.3,P
1656657915.3,286047000.4,N
1656657935.2,286047000.0,N
1656657955.9,286047001.2,N
1656657975.7,286046998.4,Y
1656657995.6,286046998.8,P
1656658015.4,286046999.4,N
1656658035.3,286046998.2,N
1656658055.1,286047000.8,N
1656658056.0,286047000.8,N
1656658075.8,286046998.8,N
1656658095.7,286046999.4,N
1656658115.5,286046996.7,Y
1656658135.4,286046999.5,P
1656658155.2,286046999.4,P
1656658175.0,286046999.0,P
1656658176.0,286046999.0,Y
1656658195.8,286046998.9,P
1656658215.6,286046996.9,P
1656658235.5,286046996.9,N
1656658255.3,286046999.2,N
1656658275.2,286046999.5,N
1656658295.9,286046999.0,N
1656658315.7,286046999.0,N
1656658335.6,286046998.8,N
1656658355.4,286046999.5,N
1656658375.2,286046999.4,N
1656658395.1,286046999.5,N
1656658396.0,286046999.5,N
1656658415.8,286046999.1,N
1656658435.7,286046999.5,N
1656658455.5,286046999.5,N
1656658475.3,286046996.7,Y
1656658495.2,286046998.5,P
1656658515.0,286046998.6,P
1656658515.9,286046998.6,P
1656658535.8,286046998.6,Y
1656658555.6,286047000.5,P
1656658575.5,286047002.4,N
1656658595.3,286047002.7,N
1656658615.1,286047002.4,N
1656658635.9,286047002.1,N
1656658655.7,286047000.0,N
1656658675.6,286047000.5,N
1656658695.4,286047001.0,N
1656658715.2,286046998.1,N
1656658735.1,286046998.7,N
1656658736.0,286046998.7,N
1656658755.8,286046998.6,N
1656658775.7,286046998.6,N
1656658795.5,286047001.1,N
